This is the latest recevied weather packets stored in our database for station/object SQ3RAX-13. If no packets are shown the sender has not sent any weather packets the latest 10 day(s).
| Time | Temp. | Humidity | Pressure | Rain* | Wind** | Luminosity | Snow |
|---|---|---|---|---|---|---|---|
| 1777872368 | 15.56° C | 60% | 1011 hPa | 0 mm | - | - | - |
| 1777871768 | 15° C | 60% | 1011 hPa | 0 mm | - | - | - |
| 1777871167 | 15° C | 68% | 1011 hPa | 0 mm | - | - | - |
| 1777870568 | 15° C | 68% | 1011 hPa | 0 mm | - | - | - |
| 1777869968 | 15° C | 69% | 1012 hPa | 0 mm | - | - | - |
| 1777869367 | 15° C | 69% | 1012 hPa | 0 mm | - | - | - |
| 1777868767 | 13.89° C | 63% | 1011 hPa | 0 mm | - | - | - |
| 1777868167 | 13.33° C | 64% | 1011 hPa | 0 mm | - | - | - |
| 1777867567 | 13.33° C | 64% | 1011 hPa | 0 mm | - | - | - |
| 1777866967 | 13.33° C | 70% | 1011 hPa | 0 mm | - | - | - |
| 1777866367 | 13.33° C | 70% | 1011 hPa | 0 mm | - | - | - |
| 1777865767 | 13.33° C | 70% | 1011 hPa | 0 mm | - | - | - |
| 1777865167 | 13.33° C | 62% | 1011 hPa | 0 mm | - | - | - |
| 1777864567 | 13.89° C | 61% | 1011 hPa | 0 mm | - | - | - |
| 1777863967 | 13.89° C | 61% | 1011 hPa | 0 mm | - | - | - |
| 1777863367 | 12.78° C | 65% | 1011 hPa | 0 mm | - | - | - |
| 1777862767 | 13.33° C | 64% | 1011 hPa | 0 mm | - | - | - |
| 1777862167 | 13.33° C | 64% | 1011 hPa | 0 mm | - | - | - |
| 1777861567 | 13.89° C | 58% | 1011 hPa | 0 mm | - | - | - |
| 1777860967 | 13.89° C | 58% | 1011 hPa | 0 mm | - | - | - |
| 1777860367 | 13.33° C | 62% | 1011 hPa | 0 mm | - | - | - |
| 1777859767 | 13.33° C | 62% | 1011 hPa | 0 mm | - | - | - |
| 1777859167 | 13.89° C | 60% | 1011 hPa | 0 mm | - | - | - |
| 1777858567 | 13.89° C | 60% | 1011 hPa | 0 mm | - | - | - |
| 1777857967 | 14.44° C | 54% | 1011 hPa | 0 mm | - | - | - |
* Rain latest hour (hover to see other rain measurements)
** Current wind speed in m/s (hover to see current wind gust speed)